Miscellaneous Local Product
Issued by NWS North Platte, NE

Home | Current Version | Previous Version | Graphics & Text | Print | Product List | Glossary On
Versions: 1 2 3 4 5 6 7 8 9 10 11 12 13 14 15 16 17 18 19 20 21 22 23 24 25 26 27 28 29 30 31 32 33 34 35 36 37 38 39 40 41 42 43 44 45 46 47 48 49 50
000
AXUS43 KLBF 252110
MISLBF


WESTERN AND NORTH CENTRAL NEBRASKA HOURLY WEATHER ROUNDUP
NATIONAL WEATHER SERVICE NORTH PLATTE NE
300 PM CST SUN JAN 25 2015

***STATIONS NOT REPORTING VARIABLES SUCH AS SKY/WEATHER OR
PRESSURE ARE PROVIDED BY THE NEBRASKA DEPARTMENT OF
ROADS...RAWS...AND APRS NETWORKS...AND ARE NOT UNDER
NATIONAL WEATHER SERVICE QUALITY CONTROL***

...OBSERVATIONS IN AND NEAR THE EASTERN PANHANDLE OF NEBRASKA...

CITY           SKY/WX    TMP DP  RH WIND       PRES   REMARKS
PINE RIDGE     CLOUDY    48  29  47 W12       30.01F
CHADRON        CLOUDY    50  34  54 W10       30.02F
ALLIANCE       CLOUDY    47  35  63 NW15G26   30.02F
SIDNEY         CLOUDY    52  32  46 NW15      30.07F
$$

...OBSERVATIONS IN NORTH CENTRAL NEBRASKA...

CITY           SKY/WX    TMP DP  RH WIND       PRES   REMARKS
VALENTINE      SUNNY     44  28  53 W14       30.03R
THEDFORD       SUNNY     48  27  43 NW17      30.03F
AINSWORTH      MOSUNNY   40  29  64 N8        30.03F
O`NEILL        CLOUDY    40  35  82 NW12      30.04R WCI  33
ORD            CLOUDY    41  29  62 NW15      30.04S
BROKEN BOW     MOSUNNY   44  29  55 N14       30.05R
$$

...OBSERVATIONS IN SOUTHWEST NEBRASKA AND FAR NORTHEAST COLORADO...

CITY           SKY/WX    TMP DP  RH WIND       PRES   REMARKS
WRAY           FAIR      57  31  37 NW15G21   30.08F
HOLYOKE        FAIR      59  32  36 NW17G24   30.06F
IMPERIAL       SUNNY     55  22  27 NW22G30   30.05F
OGALLALA       SUNNY     55  25  32 NW16G24   30.04F
NORTH PLATTE   SUNNY     51  19  28 NW20G28   30.04F
MCCOOK         SUNNY     54  21  27 N14G20    30.05F
LEXINGTON      MOSUNNY   46  29  50 N10       30.06R
$$

...NORTH PLATTE AREA...

CITY           SKY/WX    TMP DP  RH WIND       PRES   REMARKS
AIRPORT        SUNNY     51  19  28 NW20G28   30.04F
$$

...SOME WEATHER OBSERVATIONS FROM AROUND THE REGION...

CITY           SKY/WX    TMP DP  RH WIND       PRES   REMARKS
DENVER         PTSUNNY   60  25  26 W7        30.10F
LARAMIE        MOSUNNY   46  25  43 W26G36    30.15F
CHEYENNE       MOSUNNY   51  27  39 NW16G26   30.10F
SCOTTSBLUFF    MOSUNNY   51  34  52 W8        30.06F
RAPID CITY     CLOUDY    49  20  31 S8        29.97F
PIERRE         PTSUNNY   41  28  60 NW9       30.01S
WINNER         CLOUDY    42  30  62 NW8       30.03S
SIOUX FALLS    CLOUDY    34  30  85 N8        30.02R WCI  27
OMAHA          PTSUNNY   43  32  65 N16       30.01R
GRAND ISLAND   CLOUDY    41  30  65 N13       30.06R
KANSAS CITY    CLOUDY    38  33  82 N15       29.93R WCI  29
WICHITA        PTSUNNY   51  29  42 N23G36    30.02R
HAYS           SUNNY     52  25  35 N20G28    30.07F
LIBERAL        SUNNY     61  27  27 N30G36    30.11F
GOODLAND       SUNNY     55  28  35 N23G32    30.07F
$$



USA.gov is the U.S. government's official web portal to all federal, state and local government web resources and services.